timestamp,surface_pressure_avg,surface_temp_avg,battery_voltage,lat,long
2018-02-01 00:00:00+00:00,373.7262,1.5,12.41,47.84626,-54.09684
2018-02-01 00:10:00+00:00,358.0596,1.54,12.41,47.84626,-54.09684
2018-02-01 00:20:00+00:00,361.833,1.56,12.49,47.84626,-54.09684
2018-02-01 00:30:00+00:00,365.4597,1.6,12.49,47.84626,-54.09684
2018-02-01 00:40:00+00:00,353.6112,1.6,12.49,47.84626,-54.09684
2018-02-01 00:50:00+00:00,345.2764,1.6,12.49,47.84626,-54.09684
2018-02-01 01:00:00+00:00,351.3363,1.6,12.41,47.84626,-54.09684
2018-02-01 01:10:00+00:00,342.4812,1.4,12.41,47.84626,-54.09684
2018-02-01 01:20:00+00:00,334.1146,1.4,12.49,47.84626,-54.09684
2018-02-01 01:30:00+00:00,329.8763,1.5,12.49,47.84626,-54.09684
2018-02-01 01:40:00+00:00,326.0947,1.5,12.49,47.84626,-54.09684
2018-02-01 01:50:00+00:00,316.698,1.41,12.49,47.84626,-54.09684
2018-02-01 02:00:00+00:00,302.3663,1.5,12.41,47.84626,-54.09684
2018-02-01 02:10:00+00:00,292.8697,1.5,12.41,47.84626,-54.09684
2018-02-01 02:20:00+00:00,277.1281,1.5,12.49,47.84626,-54.09684
2018-02-01 02:30:00+00:00,271.6081,1.43,12.49,47.84626,-54.09684
2018-02-01 02:40:00+00:00,275.3948,1.5,12.49,47.84626,-54.09684
2018-02-01 02:50:00+00:00,265.4565,1.48,12.49,47.84626,-54.09684
2018-02-01 03:00:00+00:00,246.5914,1.4,12.41,47.84626,-54.09684
2018-02-01 03:10:00+00:00,245.9897,1.43,12.41,47.84626,-54.09684
2018-02-01 03:20:00+00:00,239.1264,1.5,12.49,47.84626,-54.09684
2018-02-01 03:30:00+00:00,223.8731,1.4,12.41,47.84626,-54.09684
2018-02-01 03:40:00+00:00,216.9398,1.44,12.49,47.84626,-54.09684
2018-02-01 03:50:00+00:00,210.3364,1.48,12.49,47.84626,-54.09684
2018-02-01 04:00:00+00:00,196.2932,1.47,12.41,47.84626,-54.09684
2018-02-01 04:10:00+00:00,196.8665,1.44,12.41,47.84626,-54.09684
2018-02-01 04:20:00+00:00,201.9848,1.4,12.49,47.84626,-54.09684
2018-02-01 04:30:00+00:00,188.9881,1.4,12.41,47.84626,-54.09684
2018-02-01 04:40:00+00:00,181.0048,1.28,12.49,47.84626,-54.09684
2018-02-01 04:50:00+00:00,186.0098,1.4,12.49,47.84626,-54.09684
2018-02-01 05:00:00+00:00,177.4398,1.3,12.41,47.84626,-54.09684
2018-02-01 05:10:00+00:00,166.6099,1.22,12.41,47.84626,-54.09684
2018-02-01 05:20:00+00:00,171.4381,1.26,12.49,47.84626,-54.09684
2018-02-01 05:30:00+00:00,175.0198,1.2,12.41,47.84626,-54.09684
2018-02-01 05:40:00+00:00,167.9531,1.2,12.49,47.84626,-54.09684
2018-02-01 05:50:00+00:00,167.7965,1.2,12.49,47.84626,-54.09684
2018-02-01 06:00:00+00:00,175.8682,1.01,12.41,47.84626,-54.09684
2018-02-01 06:10:00+00:00,179.7732,1.13,12.41,47.84626,-54.09684
2018-02-01 06:20:00+00:00,180.0331,1.15,12.41,47.84626,-54.09684
2018-02-01 06:30:00+00:00,183.0548,1.2,12.41,47.84626,-54.09684
2018-02-01 06:40:00+00:00,187.2298,1.28,12.49,47.84626,-54.09684
2018-02-01 06:50:00+00:00,186.4781,1.47,12.49,47.84626,-54.09684
2018-02-01 07:00:00+00:00,188.5031,1.48,12.41,47.84626,-54.09684
2018-02-01 07:10:00+00:00,196.5464,1.46,12.41,47.84626,-54.09684
2018-02-01 07:20:00+00:00,201.8315,1.4,12.41,47.84626,-54.09684
2018-02-01 07:30:00+00:00,203.8564,1.4,12.41,47.84626,-54.09684
2018-02-01 07:40:00+00:00,211.8881,1.4,12.49,47.84626,-54.09684
2018-02-01 07:50:00+00:00,216.6948,1.39,12.49,47.84626,-54.09684
2018-02-01 08:00:00+00:00,218.3031,1.33,12.41,47.84626,-54.09684
2018-02-01 08:10:00+00:00,227.9948,1.3,12.41,47.84626,-54.09684
2018-02-01 08:20:00+00:00,234.6514,1.3,12.41,47.84626,-54.09684
2018-02-01 08:30:00+00:00,235.0065,1.2,12.41,47.84626,-54.09684
2018-02-01 08:40:00+00:00,238.4964,1.15,12.49,47.84626,-54.09684
2018-02-01 08:50:00+00:00,251.0714,1.2,12.49,47.84626,-54.09684
2018-02-01 09:00:00+00:00,264.2747,1.08,12.41,47.84626,-54.09684
2018-02-01 09:10:00+00:00,267.1847,1.5,12.41,47.84626,-54.09684
2018-02-01 09:20:00+00:00,270.1681,1.5,12.41,47.84626,-54.09684
2018-02-01 09:30:00+00:00,285.3646,1.57,12.41,47.84626,-54.09684
2018-02-01 09:40:00+00:00,300.308,1.6,12.49,47.84626,-54.09684
2018-02-01 09:50:00+00:00,306.9113,1.6,12.49,47.84626,-54.09684
2018-02-01 10:00:00+00:00,314.9547,1.6,12.41,47.84626,-54.09684
2018-02-01 10:10:00+00:00,326.7013,1.6,12.41,47.84626,-54.09684
2018-02-01 10:20:00+00:00,338.7263,1.6,12.41,47.84626,-54.09684
2018-02-01 10:30:00+00:00,346.5596,1.55,12.41,47.84626,-54.09684
2018-02-01 10:40:00+00:00,361.118,1.57,12.49,47.84626,-54.09684
2018-02-01 10:50:00+00:00,370.2497,1.6,12.49,47.84626,-54.09684
2018-02-01 11:00:00+00:00,367.8646,1.6,12.41,47.84626,-54.09684
2018-02-01 11:10:00+00:00,370.1963,1.6,12.41,47.84626,-54.09684
2018-02-01 11:20:00+00:00,377.7229,1.5,12.41,47.84626,-54.09684
2018-02-01 11:30:00+00:00,387.2063,1.5,12.41,47.84626,-54.09684
2018-02-01 11:40:00+00:00,393.2729,1.5,12.41,47.84626,-54.09684
2018-02-01 11:50:00+00:00,391.653,1.5,12.49,47.84626,-54.09684
2018-02-01 12:00:00+00:00,397.4495,1.6,12.41,47.84626,-54.09684
2018-02-01 12:10:00+00:00,400.9012,1.6,12.41,47.84626,-54.09684
2018-02-01 12:20:00+00:00,401.3112,1.6,12.41,47.84626,-54.09684
2018-02-01 12:30:00+00:00,400.798,1.6,12.41,47.84626,-54.09684
2018-02-01 12:40:00+00:00,407.0862,1.6,12.49,47.84626,-54.09684
2018-02-01 12:50:00+00:00,410.8679,1.6,12.49,47.84626,-54.09684
2018-02-01 13:00:00+00:00,400.348,1.6,12.41,47.84626,-54.09684
2018-02-01 13:10:00+00:00,397.2697,1.6,12.41,47.84626,-54.09684
2018-02-01 13:20:00+00:00,401.7046,1.6,12.41,47.84626,-54.09684
2018-02-01 13:30:00+00:00,393.7996,1.6,12.41,47.84626,-54.09684
2018-02-01 13:40:00+00:00,382.2746,1.6,12.41,47.84626,-54.09684
2018-02-01 13:50:00+00:00,388.6429,1.6,12.49,47.84626,-54.09684
2018-02-01 14:00:00+00:00,396.3895,1.6,12.41,47.84626,-54.09684
2018-02-01 14:10:00+00:00,375.9612,1.6,12.41,47.84626,-54.09684
2018-02-01 14:20:00+00:00,360.3762,1.6,12.41,47.84626,-54.09684
2018-02-01 14:30:00+00:00,366.4612,1.6,12.41,47.84626,-54.09684
2018-02-01 14:40:00+00:00,360.3596,1.6,12.49,47.84626,-54.09684
2018-02-01 14:50:00+00:00,336.0046,1.58,12.49,47.84626,-54.09684
2018-02-01 15:00:00+00:00,326.0046,1.6,12.41,47.84626,-54.09684
2018-02-01 15:10:00+00:00,324.7598,1.6,12.41,47.84626,-54.09684
2018-02-01 15:20:00+00:00,304.913,1.54,12.41,47.84626,-54.09684
2018-02-01 15:30:00+00:00,284.9948,1.58,12.41,47.84626,-54.09684
2018-02-01 15:40:00+00:00,287.3064,1.6,12.41,47.84626,-54.09684
2018-02-01 15:50:00+00:00,279.1931,1.5,12.49,47.84626,-54.09684
2018-02-01 16:00:00+00:00,251.9264,1.45,12.41,47.84626,-54.09684
2018-02-01 16:10:00+00:00,243.5764,1.5,12.41,47.84626,-54.09684
2018-02-01 16:20:00+00:00,243.3814,1.58,12.41,47.84626,-54.09684
2018-02-01 16:30:00+00:00,225.2598,1.58,12.41,47.84626,-54.09684
2018-02-01 16:40:00+00:00,213.5165,1.55,12.49,47.84626,-54.09684
2018-02-01 16:50:00+00:00,222.3281,1.5,12.49,47.84626,-54.09684
2018-02-01 17:00:00+00:00,220.7231,1.49,12.41,47.84626,-54.09684
2018-02-01 17:10:00+00:00,209.0048,1.5,12.41,47.84626,-54.09684
2018-02-01 17:20:00+00:00,206.7414,1.5,12.49,47.84626,-54.09684
2018-02-01 17:30:00+00:00,208.5681,1.49,12.49,47.84626,-54.09684
2018-02-01 17:40:00+00:00,198.4014,1.48,12.57,47.84626,-54.09684
2018-02-01 17:50:00+00:00,188.0615,1.4,12.65,47.84626,-54.09684
2018-02-01 18:00:00+00:00,201.1498,1.3,12.57,47.84626,-54.09684
2018-02-01 18:10:00+00:00,206.8998,1.38,12.57,47.84626,-54.09684
2018-02-01 18:20:00+00:00,191.2398,1.46,12.65,47.84626,-54.09684
2018-02-01 18:30:00+00:00,191.6264,1.5,12.65,47.84626,-54.09684
2018-02-01 18:40:00+00:00,206.2664,1.11,12.73,47.84626,-54.09684
2018-02-01 18:50:00+00:00,201.6165,1.32,12.73,47.84626,-54.09684
2018-02-01 19:00:00+00:00,199.4998,1.4,12.65,47.84626,-54.09684
2018-02-01 19:10:00+00:00,211.0181,1.3,12.57,47.84626,-54.09684
2018-02-01 19:20:00+00:00,210.2531,1.24,12.65,47.84626,-54.09684
2018-02-01 19:30:00+00:00,205.4181,1.17,12.65,47.84626,-54.09684
2018-02-01 19:40:00+00:00,213.2365,1.05,12.65,47.84626,-54.09684
2018-02-01 19:50:00+00:00,221.4831,0.8,12.57,47.84626,-54.09684
2018-02-01 20:00:00+00:00,221.2131,0.8,12.49,47.84626,-54.09684
2018-02-01 20:10:00+00:00,218.7597,0.83,12.49,47.84626,-54.09684
2018-02-01 20:20:00+00:00,228.7164,0.8,12.49,47.84626,-54.09684
2018-02-01 20:30:00+00:00,237.0298,0.71,12.49,47.84626,-54.09684
2018-02-01 20:40:00+00:00,237.0181,0.92,12.49,47.84626,-54.09684
2018-02-01 20:50:00+00:00,242.1998,1.0,12.49,47.84626,-54.09684
2018-02-01 21:00:00+00:00,255.9997,0.9,12.41,47.84626,-54.09684
2018-02-01 21:10:00+00:00,262.963,0.9,12.41,47.84626,-54.09684
2018-02-01 21:20:00+00:00,263.0898,0.9,12.49,47.84626,-54.09684
2018-02-01 21:30:00+00:00,275.8931,0.9,12.49,47.84626,-54.09684
2018-02-01 21:40:00+00:00,291.148,1.0,12.49,47.84626,-54.09684
2018-02-01 21:50:00+00:00,290.2596,1.04,12.49,47.84626,-54.09684
2018-02-01 22:00:00+00:00,293.9614,1.05,12.41,47.84626,-54.09684
2018-02-01 22:10:00+00:00,309.843,1.02,12.41,47.84626,-54.09684
2018-02-01 22:20:00+00:00,319.6947,1.0,12.49,47.84626,-54.09684
2018-02-01 22:30:00+00:00,320.3596,1.13,12.49,47.84626,-54.09684
2018-02-01 22:40:00+00:00,330.298,1.1,12.49,47.84626,-54.09684
2018-02-01 22:50:00+00:00,346.7946,0.9,12.49,47.84626,-54.09684
2018-02-01 23:00:00+00:00,355.1647,1.04,12.41,47.84626,-54.09684
2018-02-01 23:10:00+00:00,355.4663,1.03,12.41,47.84626,-54.09684
2018-02-01 23:20:00+00:00,364.6195,1.1,12.49,47.84626,-54.09684
2018-02-01 23:30:00+00:00,375.5396,1.0,12.41,47.84626,-54.09684
2018-02-01 23:40:00+00:00,376.9095,1.0,12.49,47.84626,-54.09684
2018-02-01 23:50:00+00:00,379.7562,1.04,12.49,47.84626,-54.09684
